GW3657 Weather Reports


time (UTC)temp
F
wind
direction
speed
knots
gust
knots
rain 1hr
in
rain 24hr
in
rain mn
in
humidity
%
barometer
mb
20260507063044 53 15 1.7 4.3 0.00 0.39 0.06 92 1013.6
20260507061547 53 24 1.7 3.5 0.00 0.39 0.06 93 1013.6
20260507060108 54 348 0.9 3.5 0.00 0.39 0.06 93 1013.4
20260507054554 54 0 0.0 0.0 0.00 0.40 0.06 93 1013.3
20260507053044 53 0 0.0 0.0 0.00 0.40 0.06 92 1013.0
20260507051559 53 0 0.0 0.0 0.00 0.40 0.06 92 1012.5
20260507050050 53 0 0.0 0.0 0.00 0.40 0.06 92 1012.3
20260507044543 53 0 0.0 0.0 0.00 0.40 0.06 91 1012.3
20260507043045 53 0 0.0 0.9 0.00 0.40 0.06 92 1012.1
20260507041544 53 326 0.0 2.6 0.00 0.40 0.06 91 1012.0
20260507040049 53 300 0.9 2.6 0.00 0.40 0.06 90 1011.9
20260507034549 53 263 2.6 5.2 0.00 0.40 0.06 90 1012.0
20260507033051 54 280 2.6 4.3 0.00 0.40 0.06 90 1011.9
20260507031549 54 0 1.7 5.2 0.00 0.40 0.06 90 1011.8
20260507030050 55 0 0.0 1.7 0.00 0.40 0.06 91 1011.7
20260507024547 55 180 0.0 4.3 0.00 0.40 0.06 91 1011.7
20260507023050 55 211 2.6 6.1 0.00 0.40 0.06 90 1011.8
20260507021544 55 182 4.3 6.1 0.00 0.40 0.06 91 1011.6
20260507020100 55 0 0.0 1.7 0.00 0.40 0.06 91 1011.6
20260507014557 55 168 1.7 4.3 0.00 0.40 0.06 91 1011.4
20260507013043 55 243 2.6 7.8 0.00 0.40 0.06 91 1011.2
20260507011549 55 227 6.1 10.4 0.00 0.40 0.06 92 1011.1
20260507010058 55 275 2.6 6.1 0.00 0.40 0.06 92 1011.0
20260507004543 55 286 2.6 6.1 0.00 0.41 0.06 91 1011.0
20260507003046 56 155 4.3 7.8 0.04 0.41 0.06 90 1011.0
20260507001547 55 139 2.6 5.2 0.04 0.41 0.06 92 1011.2
20260507000045 55 162 2.6 6.1 0.04 0.41 0.06 91 1011.1
20260506234547 55 150 0.9 2.6 0.03 0.40 0.05 91 1011.0
20260506233044 55 116 0.9 4.3 0.00 0.37 0.01 91 1010.9
20260506231604 55 5 1.7 4.3 0.00 0.37 0.01 90 1010.9
20260506230106 56 55 0.9 2.6 0.00 0.37 0.01 89 1010.8
20260506224550 56 344 1.7 3.5 0.02 0.37 0.01 88 1010.6
20260506223049 57 0 0.0 0.0 0.02 0.37 0.01 87 1010.6
20260506221608 57 0 0.0 2.6 0.02 0.37 0.01 84 1010.4
20260506220115 58 137 1.7 4.3 0.00 0.35 0.00 85 1010.4
20260506214550 58 245 2.6 5.2 0.00 0.34 0.34 83 1010.0
20260506213104 58 271 0.9 5.2 0.00 0.34 0.34 82 1010.0
20260506211547 59 94 1.7 5.2 0.00 0.34 0.34 80 1009.9
20260506210057 58 142 2.6 7.0 0.00 0.34 0.34 81 1010.1
20260506204556 58 130 3.5 6.1 0.00 0.34 0.34 82 1009.9
20260506203047 59 258 0.0 4.3 0.00 0.34 0.34 81 1009.5
20260506201550 59 0 0.9 7.0 0.00 0.34 0.34 80 1009.1
20260506200048 59 287 5.2 9.6 0.00 0.34 0.34 79 1008.7
20260506194550 59 123 3.5 7.8 0.00 0.34 0.34 78 1008.2
20260506193045 59 125 3.5 7.8 0.00 0.34 0.34 77 1008.1
20260506191551 60 0 0.0 9.6 0.00 0.34 0.34 76 1007.9
20260506190046 61 156 2.6 14.8 0.00 0.34 0.34 76 1007.6
20260506184605 61 145 1.7 5.2 0.00 0.34 0.34 78 1007.7
20260506183048 61 59 2.6 6.1 0.00 0.34 0.34 79 1007.3
20260506181551 62 9 3.5 6.1 0.00 0.34 0.34 78 1006.9
20260506180058 61 92 4.3 10.4 0.06 0.34 0.34 77 1006.6
20260506174547 61 355 5.2 17.4 0.15 0.34 0.34 80 1006.5
20260506173050 62 139 8.7 15.6 0.15 0.34 0.34 77 1005.8
20260506171557 62 126 7.8 19.1 0.15 0.34 0.34 78 1005.8
20260506170053 62 130 8.7 20.0 0.08 0.27 0.27 78 1005.6
20260506164548 65 128 10.4 16.5 0.01 0.18 0.18 71 1005.3
20260506163049 66 107 7.0 17.4 0.03 0.18 0.18 70 1005.3
20260506161546 65 121 10.4 17.4 0.07 0.18 0.18 70 1005.4
20260506160108 65 103 11.3 18.2 0.16 0.18 0.18 72 1005.3
20260506154551 65 125 10.4 14.8 0.14 0.17 0.17 73 1005.2
20260506153046 65 136 8.7 16.5 0.13 0.15 0.15 72 1005.5
20260506151545 64 132 6.1 9.6 0.08 0.11 0.11 71 1005.8
20260506150054 66 128 7.0 12.2 0.00 0.02 0.02 65 1005.6
20260506144559 67 150 6.1 13.0 0.00 0.02 0.02 62 1005.3
20260506143050 68 126 7.8 16.5 0.00 0.02 0.02 61 1005.4
20260506141547 69 101 8.7 14.8 0.00 0.02 0.02 61 1005.6
20260506140050 69 103 7.8 13.0 0.00 0.02 0.02 62 1005.6
20260506134549 68 171 7.0 13.0 0.00 0.02 0.02 60 1005.8
20260506133050 67 115 7.0 16.5 0.00 0.02 0.02 64 1005.9
20260506131557 68 90 4.3 9.6 0.00 0.02 0.02 64 1005.9
20260506130049 69 34 3.5 11.3 0.00 0.02 0.02 63 1006.0
20260506124547 68 71 7.0 12.2 0.00 0.02 0.02 63 1006.1
20260506123052 67 338 7.8 11.3 0.00 0.02 0.02 71 1006.1
20260506121547 67 17 7.0 11.3 0.00 0.02 0.02 70 1006.1
20260506120052 67 10 6.1 11.3 0.00 0.02 0.02 71 1006.2
20260506114551 66 11 3.5 9.6 0.00 0.02 0.02 72 1006.4
20260506113048 65 5 2.6 9.6 0.00 0.02 0.02 75 1006.6
20260506111543 64 332 2.6 8.7 0.00 0.02 0.02 74 1006.6
20260506110048 64 316 0.9 7.0 0.00 0.02 0.02 76 1006.8
20260506104551 64 347 4.3 7.8 0.00 0.03 0.02 77 1007.0
20260506103052 64 41 2.6 6.1 0.00 0.03 0.02 77 1007.1
20260506101550 62 28 3.5 7.0 0.00 0.03 0.02 80 1007.1
20260506100100 63 10 1.7 5.2 0.00 0.03 0.02 77 1007.4
20260506094549 62 0 0.9 5.2 0.00 0.03 0.02 78 1007.4
20260506093045 60 9 1.7 7.0 0.00 0.03 0.02 82 1007.6
20260506091552 59 312 1.7 8.7 0.00 0.03 0.02 83 1007.7
20260506090044 60 311 2.6 4.3 0.00 0.03 0.02 80 1007.6
20260506084543 60 90 1.7 3.5 0.00 0.03 0.02 82 1007.6
20260506083045 58 0 0.0 3.5 0.00 0.03 0.02 87 1007.8
20260506081545 58 0 0.0 0.0 0.00 0.03 0.02 88 1007.9
20260506073050 56 0 0.0 1.7 0.00 0.03 0.02 93 1008.0
20260506071558 55 355 0.0 1.7 0.00 0.03 0.02 94 1007.8